Regional Weather Roundup
Issued by NWS Jackson, KY

Home | Current Version | Previous Version | Graphics & Text | Print | Product List | Glossary On
Versions: 1 2 3 4 5 6 7 8 9 10 11 12 13 14 15 16 17 18 19 20 21 22 23 24 25 26 27
000
ASUS43 KJKL 301510
RWRJKL

EAST KENTUCKY HOURLY WEATHER ROUNDUP
NATIONAL WEATHER SERVICE JACKSON KY
1100 AM EDT TUE AUG 30 2016

NOTE: "FAIR" INDICATES FEW OR NO CLOUDS BELOW 12,000 FEET WITH
NO SIGNIFICANT WEATHER AND/OR OBSTRUCTIONS TO VISIBILITY.

* THESE REPORTS ARE NOT UNDER NWS QUALITY CONTROL AND MAY NOT
  REPORT WEATHER SUCH AS PRECIPITATION AND FOG.

KYZ079-080-083-085-087-088-110-112-115-119-120-301600
...EASTERN KENTUCKY...

CITY           SKY/WX    TMP DP  RH WIND       PRES   REMARKS
JACKSON        SUNNY     79  71  76 CALM      30.17S
LONDON         SUNNY     81  68  64 SE3       30.16S
SOMERSET*      SUNNY     81  68  65 CALM      30.16S
MONTICELLO*    SUNNY    N/A N/A N/A W8        30.16F
WILLIAMSBURG*  SUNNY     77  72  83 CALM      30.16F
MIDDLESBORO*   SUNNY     81  70  68 CALM      30.16F
HARLAN APT*    SUNNY     81  68  65 NW3       30.18F
PIKE CO APT*     N/A     78  72  80 N3        30.18S
BIG SANDY APT* MOSUNNY   76  73  90 CALM      30.17F
MOREHEAD APT*  SUNNY     81  66  61 VRB5      30.19S
$$

KYZ035-036-041-042-044-050-067-078-099-301600
...CENTRAL KENTUCKY...

CITY           SKY/WX    TMP DP  RH WIND       PRES   REMARKS
MT STERLING*   SUNNY     82  70  65 E7        30.18S
FLEMING/MASON* SUNNY     79  67  67 SE7       30.18F
DANVILLE*      SUNNY     81  72  74 SE3       30.16F
LEXINGTON      SUNNY     85  68  56 E6        30.16S
FRANKFORT      SUNNY     83  70  64 E5        30.15S
LOUISVILLE     MOSUNNY   84  69  60 CALM      30.13F
LEBANON*         N/A     82  72  69 CALM      30.15S
GLASGOW*       SUNNY     82  71  70 CALM      30.13S
BOWLING GREEN  SUNNY     82  72  71 CALM      30.12F
$$

KYZ091>093-OHZ055-061-077-WVZ005-015-034-035-042-301600
...SOUTHERN OHIO/WEST VIRGINIA...

CITY           SKY/WX    TMP DP  RH WIND       PRES   REMARKS
COVINGTON      SUNNY     81  69  67 E5        30.17S
COLUMBUS       SUNNY     78  62  57 SE5       30.17S
DAYTON         MOSUNNY   79  65  62 SE3       30.18F
WILMINGTON     SUNNY     77  68  73 SE5       30.17F
HUNTINGTON     SUNNY     82  68  62 VRB3      30.15S
CHARLESTON     MOSUNNY   81  70  69 CALM      30.15F
PINEVILLE*     SUNNY     81  65  57 MISG      30.24F
BECKLEY        SUNNY     77  66  68 VRB6      30.24S
BLUEFIELD      SUNNY     75  65  70 SE6       30.26S
LOGAN CO APT*    N/A     81  72  74 CALM      30.17F
$$

VAZ002-007-008-TNZ017-027-036-066-071-301600
...SOUTHWEST VIRGINIA/EAST TENNESSEE...

CITY           SKY/WX    TMP DP  RH WIND       PRES   REMARKS
WISE*          SUNNY     79  57  47 S9        30.25F
JONESVILLE*      N/A     81  68  65 CALM      30.19F
ABINGDON*      SUNNY     82  67  59 E5        30.22S
BRISTOL        SUNNY     80  68  66 E5        30.18F
MORRISTOWN*    SUNNY     82  66  57 VRB6      30.15F
SEVIERVILLE*   SUNNY     81  64  57 CALM      30.13F
KNOXVILLE      SUNNY     84  65  52 CALM      30.13F
OAK RIDGE      SUNNY     82  69  64 VRB3      30.15
CROSSVILLE     SUNNY     80  65  59 CALM      30.19S
NASHVILLE      SUNNY     84  73  70 CALM      30.11F HX  91
$$

...KEY TO REMARKS...
VSB - VISIBILITY IN MILES
WCI - WIND CHILL INDEX
HX  - HEAT INDEX

$$




USA.gov is the U.S. government's official web portal to all federal, state and local government web resources and services.